AirNav   Pilot Hours Calculator
 
 965 users online  

22KS Via Christi Regional Medical Center-St Francis Campus Heliport
Wichita, Kansas, USA

GOING TO WICHITA?


FAA INFORMATION EFFECTIVE 30 JANUARY 2020

Location

FAA Identifier: 22KS
Lat/Long: 37-41-54.1400N 097-19-55.0400W
37-41.902333N 097-19.917333W
37.6983722,-97.3319556
(estimated)
Elevation: 1382 ft. / 421 m (estimated)
Variation: 07E (1985)
Time zone: UTC -6 (UTC -5 during Daylight Saving Time)
Zip code: 67214

Heliport Operations

Heliport use: Private use, MEDICAL.
Activation date: 12/1982
Control tower: no
ARTCC: KANSAS CITY CENTER
FSS: WICHITA FLIGHT SERVICE STATION
Attendance: CONTINUOUS
Wind indicator: lighted
Segmented circle: yes
Lights: FOR PERIMETER LGTS CALL 316-268-5092.

Heliport Communications

WX AWOS-3PT at BEC (6 nm E): 119.45 (316-515-7116)
WX ASOS at ICT (6 nm SW): PHONE 316-945-8022
WX ASOS at AAO (6 nm NE): 134.025 (316-636-2541)
WX AWOS-3 at 1K1 (11 nm NE): 118.3 (316-530-6004)
WX AWOS-3PT at 3AU (12 nm E): 124.175 (316-733-6696)

Nearby radio navigation aids

VOR radial/distance  VOR name  Freq  Var
ICTr096/12.3WICHITA VORTAC113.8007E
HUTr118/33.7HUTCHINSON VOR/DME116.8004E

 
NDB name  Hdg/Dist  Freq  Var  ID
PICHE035/9.333204EIC .. -.-.
NEWTON181/22.128106EEWK . .-- -.-

Heliport Services

Runway Information

Helipad H1

Dimensions: 63 x 63 ft. / 19 x 19 m
Surface: concrete
ROOFTOP.
Runway edge lights: PERI
Latitude: 37-41.902333N
Longitude: 097-19.917333W
Elevation: 1382.0 ft.
Traffic pattern: leftleft
Markings: basic, in good condition

Heliport Ownership and Management from official FAA records

Ownership: Privately-owned
Owner: VIA CHRISTI RGL MED CTR ST F CAMPUS
929 N ST FRANCIS
WICHITA, KS 67214
Phone 316-268-5000
Manager: DAN GONDA
929 N ST FRANCIS
WICHITA, KS 67214
Phone (316) 268-6948

Additional Remarks

A52-H1 77' BLDG-ML 270' NORTH; TOWERS EAST & WEST.
FOR CD CTC WICHITA APCH AT 316-350-1520.

Instrument Procedures

There are no published instrument procedures at 22KS.

Some nearby airports with instrument procedures:

KCEA - Cessna Aircraft Field Airport (5 nm SE)
KIAB - Mc Connell Air Force Base (5 nm SE)
KBEC - Beech Factory Airport (6 nm E)
KICT - Wichita Dwight D Eisenhower National Airport (6 nm SW)
KAAO - Colonel James Jabara Airport (6 nm NE)
1K1 - Lloyd Stearman Field Airport (11 nm NE)
3AU - Augusta Municipal Airport (12 nm E)
 
Loc | Ops | Rwys | IFR | FBO | Links
Com | Nav | Svcs | Stats | Notes

Kansas City Aviation Department
 
Area around 22KS (Via Christi Regional Medical Center-St Francis Campus Heliport)
 
Road maps at: MapQuest Bing Google
 
Aerial photo
No photo
 
Sectional chart

 
Airport distance calculator
Flying to Via Christi Regional Medical Center-St Francis Campus Heliport? Find the distance to fly.

From to 22KS

Sunrise and sunset
Times for 21-Feb-2020
 Local
(UTC-6)
 Zulu
(UTC)
Morning civil twilight06:4612:46
Sunrise07:1313:13
Sunset18:1400:14
Evening civil twilight18:4000:40

Current date and time
Zulu (UTC)  22-Feb-2020 01:02:58
Local (UTC-6)  21-Feb-2020 19:02:58
 
METAR
KBEC 
6nm E 
220055Z AUTO 17007KT 10SM CLR 02/M07 A3037 RMK AO2 T00161066
KICT 
6nm SW 
220053Z 18009KT 10SM FEW250 03/M06 A3036 RMK AO2 SLP297 T00281056
KIAB 
6nm SE 
220056Z AUTO 19009KT 10SM CLR 03/M08 A3036 RMK AO2 SLP301 T00321082
KAAO 
6nm NE 
220054Z AUTO 17009KT 10SM CLR 03/M07 A3036 RMK AO2 SLP302 T00281067
K1K1 
11nm NE 
220030Z AUTO 19007KT 10SM CLR 03/M06 A3037 RMK AO2 T00321065
K3AU 
12nm E 
220055Z AUTO 17006KT 10SM CLR 01/M06 A3038 RMK AO2
TAF
KICT 
6nm SW 
211722Z 2118/2218 20013KT P6SM SKC FM220300 18010KT P6SM SKC FM221700 20012KT P6SM BKN250
KIAB 
6nm SE 
211800Z 2118/2224 19009KT 9999 SKC QNH3035INS BECMG 2205/2206 19009KT 9999 SKC WS020/18040KT QNH3023INS BECMG 2212/2213 19010G15KT 9999 SKC QNH3010INS BECMG 2217/2218 19015G25KT 9999 SKC QNH3005INS TX06/2120Z TNM02/2209Z
NOTAMs
Click for the latest NOTAMs
NOTAMs are issued by the DoD/FAA and will open in a separate window not controlled by AirNav.

 

 
 

Would you like to see your business listed on this page?

 If your business provides an interesting product or service to pilots, flight crews, aircraft, or users of the Via Christi Regional Medical Center-St Francis Campus Heliport, you should consider listing it here.  To start the listing process, click on the button below
 
Add a business
 

Other Pages about Via Christi Regional Medical Center-St Francis Campus Heliport

Update a link
 
Copyright © AirNav, LLC. All rights reserved. Privacy Policy  Contact